Wind_Speed
45 49 46 40 41 46 47 49 51 46 39 47 52 53 48 40 37 35 34 31 29 29 29 32 32 30 30 31 32 34 35 36 36 36 35 34 34 34 33 32 33 35 36 36
47 49 44 43 45 47 49 51 50 49 44 50 55 55 50 44 37 34 33 31 31 31 31 32 34 33 33 34 34 35 36 37 36 35 34 34 34 34 34 35 37 38 39 39
48 49 47 47 48 47 48 49 50 52 52 51 54 55 48 42 37 34 33 34 34 34 34 34 35 35 36 37 37 37 37 37 36 36 35 35 35 36 37 38 40 41 41 41
48 45 45 47 47 45 50 47 51 54 56 56 54 57 47 40 39 38 36 35 34 35 35 35 36 37 38 39 39 39 39 39 39 38 38 38 38 38 39 40 41 42 42 43
45 44 45 47 46 47 51 51 53 55 57 59 60 59 51 45 40 38 36 35 35 34 34 34 35 37 38 38 39 39 40 40 41 42 42 41 40 41 42 43 42 43 44 46
47 46 48 49 48 48 49 51 52 56 59 60 58 58 51 53 48 44 41 40 39 39 37 35 35 36 37 39 41 42 43 44 44 44 43 42 41 43 45 46 45 45 46 49
55 53 52 51 52 50 49 50 54 58 61 61 58 59 54 58 57 51 49 48 46 44 43 42 39 38 39 39 40 42 44 45 45 43 42 43 44 47 48 49 49 48 49 51
63 62 57 55 53 55 57 58 60 62 64 64 63 63 58 60 59 58 58 56 53 50 49 47 42 38 38 38 37 39 42 44 44 44 45 47 49 51 53 54 54 52 51 51
65 69 63 61 58 57 61 63 63 64 66 70 71 69 63 61 62 62 60 59 58 56 51 46 40 38 40 40 39 41 44 46 47 47 50 52 54 55 57 57 56 54 52 51
66 71 71 65 61 58 57 57 60 65 69 72 73 72 68 63 64 64 60 58 58 55 48 42 41 43 45 44 44 46 49 52 52 52 53 55 56 58 60 61 59 57 54 52
74 75 73 69 64 58 56 56 58 64 69 75 75 70 63 64 64 63 60 58 55 52 49 48 49 50 48 47 48 50 54 57 58 57 57 57 58 58 60 60 60 58 55 53
75 76 75 73 69 66 63 61 61 65 68 72 74 69 54 58 59 59 57 53 50 49 47 47 48 48 49 49 51 54 58 60 62 62 61 61 60 59 58 57 56 56 55 54
73 76 78 78 74 71 71 69 67 66 68 69 70 69 54 50 49 51 52 52 51 49 47 47 47 49 52 54 56 59 62 63 64 65 64 64 62 58 55 53 54 55 54 54
71 75 77 77 76 72 73 71 70 70 72 74 75 74 62 53 52 54 58 59 56 54 51 50 50 50 54 57 60 62 63 63 64 66 66 65 60 55 53 54 55 56 56 56
70 71 70 67 65 66 68 67 67 73 77 82 83 84 81 75 73 74 72 69 64 60 57 56 57 57 58 57 58 59 61 61 63 65 64 62 56 54 53 55 57 58 59 58
66 66 63 62 60 62 65 62 63 67 71 75 77 77 73 71 70 76 78 75 73 72 70 69 69 68 67 66 64 64 64 64 64 63 62 59 58 57 57 58 60 61 60 59
65 65 67 68 63 61 62 59 60 62 62 64 66 63 58 56 57 65 74 81 83 82 79 78 77 76 74 73 73 72 72 70 69 66 65 65 65 64 63 62 62 62 62 61
67 68 73 77 75 77 71 65 64 64 62 63 66 66 64 62 61 63 69 74 78 79 79 78 78 77 78 79 81 80 79 78 76 73 72 72 71 70 68 65 63 63 63 62
67 69 72 75 79 83 81 83 82 78 75 78 80 80 80 78 75 75 73 73 74 74 75 75 76 77 79 81 82 82 81 80 79 79 78 77 74 72 68 64 64 64 65 65
70 70 72 75 78 80 80 82 84 84 84 85 87 87 86 84 80 76 72 69 67 67 69 70 72 74 75 74 75 76 75 76 78 79 79 77 74 71 67 64 64 65 66 65
76 75 74 75 79 81 81 80 77 76 76 75 75 75 74 72 73 73 72 71 68 66 68 68 69 69 67 67 70 73 74 76 78 78 78 76 73 69 67 66 65 65 64 64
74 76 75 76 77 78 78 81 82 84 83 82 81 83 84 84 84 84 82 79 76 73 73 71 69 67 68 69 73 75 76 77 76 75 74 74 72 69 68 68 67 65 64 64
68 69 72 74 75 73 73 77 82 87 90 93 96 98 100 100 98 95 91 87 83 78 77 77 76 73 73 75 76 77 77 76 74 72 72 73 73 72 71 70 69 67 66 66
64 64 66 68 69 69 70 72 75 79 83 87 91 94 96 97 96 93 90 88 87 85 85 87 88 87 82 80 78 78 78 77 75 74 74 75 75 73 72 71 70 70 69 69
62 62 63 64 63 63 63 65 69 74 79 83 87 90 94 96 96 95 95 95 96 95 96 96 93 90 87 84 83 81 80 79 78 77 77 78 79 77 76 75 74 73 72 72
57 56 58 59 56 58 58 58 60 65 68 72 76 81 86 92 96 99 100 100 99 99 99 99 97 93 90 88 87 83 80 81 81 81 81 82 83 81 80 79 79 78 76 76
Wind_Direction
275 276 282 289 286 284 285 286 289 294 295 287 284 283 283 281 280 283 283 284 285 280 275 276 278 277 274 274 275 275 275 273 272 274 275 272 269 268 272 278 282 284 285 286
274 276 283 282 281 282 284 286 289 292 290 283 282 283 285 287 286 284 283 284 283 281 277 277 277 275 273 274 275 271 269 267 269 273 272 270 269 271 274 279 282 284 285 284
271 275 277 278 277 278 278 282 286 285 283 280 283 284 285 289 290 288 285 283 282 282 279 275 273 271 271 273 273 270 268 266 268 270 270 270 271 273 275 279 282 284 284 283
269 271 273 273 273 275 275 279 279 280 282 283 281 285 288 290 288 286 283 280 279 280 278 273 270 272 273 274 273 271 267 265 266 268 269 270 271 273 275 278 280 282 284 284
272 271 269 269 272 273 274 274 274 276 278 280 281 285 293 291 289 286 282 281 280 277 273 272 272 274 276 275 272 269 267 266 266 266 267 267 269 270 273 275 277 280 282 284
272 270 270 271 272 274 275 274 272 272 272 273 278 282 287 286 286 286 286 284 281 279 275 273 273 273 275 275 273 270 266 264 263 264 265 266 267 269 272 275 277 280 282 282
270 269 270 273 277 277 275 272 272 270 269 271 275 276 279 282 284 286 285 282 281 281 280 279 280 277 277 277 274 270 266 264 263 264 267 268 270 272 275 277 280 281 281 279
273 269 270 273 275 275 273 270 269 271 272 273 271 270 275 278 283 286 286 285 285 286 285 283 285 284 283 284 278 268 262 260 261 264 268 270 271 273 276 278 279 280 278 275
276 275 276 277 276 274 273 272 273 270 269 269 270 271 271 275 279 280 283 289 293 295 293 290 286 282 284 285 278 267 260 259 261 263 266 269 272 273 275 276 278 278 276 273
276 276 275 277 279 278 278 276 273 270 267 266 266 266 268 272 274 277 281 285 288 292 293 289 285 283 283 280 274 267 261 260 263 266 268 270 271 272 274 275 277 277 275 273
279 280 277 276 278 280 279 277 275 272 267 264 263 262 264 269 273 276 279 282 283 285 286 286 286 285 281 276 271 267 265 265 268 271 272 271 272 273 274 275 276 275 274 273
279 282 280 277 276 276 277 278 278 275 272 268 267 263 259 263 268 272 275 280 285 288 290 288 284 278 271 266 264 263 265 268 272 275 276 275 275 275 275 274 273 273 272 272
277 276 277 277 275 274 275 277 278 275 271 267 266 267 261 258 265 272 274 277 284 288 287 282 275 268 262 260 260 261 264 269 273 276 278 278 278 276 275 272 270 269 270 271
272 271 272 275 279 279 275 274 272 269 266 268 269 272 269 261 266 271 273 276 280 281 279 273 268 264 262 263 264 265 267 270 272 275 276 277 276 274 272 269 268 269 270 273
270 272 275 276 277 277 277 275 269 265 267 271 274 276 276 273 270 272 274 275 274 272 268 264 263 263 264 265 266 267 268 269 270 271 272 271 270 270 270 269 270 272 275 277
269 268 269 271 275 278 278 275 271 269 272 275 276 276 276 276 273 272 271 271 268 268 267 267 266 265 265 265 265 266 267 268 269 269 268 266 267 269 271 272 273 275 276 276
268 266 266 266 265 267 268 271 273 272 272 272 271 273 269 261 260 267 269 270 273 274 273 270 269 267 265 263 263 264 266 267 268 268 267 267 269 271 273 273 274 274 275 275
274 271 268 268 266 263 263 265 266 269 270 268 268 269 267 264 264 265 266 269 271 272 272 271 270 267 263 260 260 260 262 265 266 265 266 268 270 272 273 273 273 273 274 275
273 271 270 270 270 268 266 266 266 267 269 269 270 271 270 269 268 268 268 269 269 269 267 266 264 263 261 260 261 262 263 265 265 266 267 267 268 269 270 270 272 273 274 275
272 269 268 268 268 268 268 268 268 268 270 269 271 272 273 273 272 270 269 267 266 265 262 261 260 259 258 260 262 263 263 264 264 264 265 265 265 265 266 268 270 273 276 277
276 273 270 269 267 266 266 267 267 265 262 261 262 263 263 263 265 267 267 267 267 265 261 258 256 255 257 259 262 263 264 263 263 265 266 265 265 264 266 268 271 273 274 276
278 278 276 273 270 267 266 264 262 260 259 258 258 258 260 262 264 267 268 267 266 264 259 256 254 254 257 261 261 260 260 261 262 264 266 266 265 265 268 270 272 272 273 273
278 278 277 276 275 273 269 266 265 263 262 261 260 261 263 266 267 267 266 264 261 258 255 255 258 259 262 264 262 257 256 256 258 260 263 265 265 265 266 269 270 271 271 272
279 279 279 277 276 274 272 269 268 267 266 265 265 264 264 264 264 264 263 261 258 256 257 260 262 262 263 262 260 255 251 250 253 256 258 261 263 264 265 266 266 267 267 268
285 285 281 279 278 276 272 271 270 269 268 267 266 265 265 265 264 263 262 260 259 259 260 260 261 259 257 254 252 248 245 246 248 251 254 256 257 259 261 262 262 262 263 264
285 285 285 286 287 285 283 279 276 274 272 272 271 270 269 268 267 265 263 262 262 262 261 260 258 254 251 249 246 242 240 241 243 245 248 251 253 255 257 258 258 258 258 259
Height
5813 5809 5810 5815 5811 5806 5802 5798 5794 5798 5803 5793 5785 5783 5788 5795 5796 5795 5794 5793 5791 5788 5787 5784 5782 5781 5781 5780 5779 5777 5776 5775 5774 5773 5772 5771 5771 5771 5771 5771 5770 5770 5769 5768
5802 5799 5805 5804 5800 5797 5794 5790 5788 5788 5791 5782 5772 5770 5775 5780 5785 5785 5784 5783 5781 5779 5779 5776 5773 5772 5771 5771 5769 5767 5766 5765 5764 5764 5763 5762 5761 5761 5762 5761 5760 5759 5758 5758
5792 5792 5792 5790 5789 5788 5785 5783 5781 5776 5773 5770 5763 5755 5765 5770 5773 5774 5774 5772 5770 5769 5768 5766 5764 5762 5761 5760 5759 5757 5755 5755 5754 5753 5752 5751 5751 5751 5750 5750 5750 5749 5748 5747
5778 5782 5781 5777 5776 5776 5771 5775 5769 5764 5760 5755 5756 5741 5751 5760 5762 5764 5763 5761 5760 5759 5757 5755 5753 5751 5750 5749 5748 5746 5745 5744 5743 5742 5741 5740 5740 5740 5740 5740 5739 5738 5737 5735
5767 5769 5768 5765 5766 5764 5761 5760 5757 5754 5749 5745 5740 5739 5731 5743 5747 5750 5752 5751 5748 5747 5746 5745 5742 5740 5739 5738 5736 5735 5734 5733 5732 5731 5730 5729 5729 5728 5728 5727 5727 5726 5724 5722
5755 5755 5754 5754 5754 5751 5749 5746 5743 5740 5737 5732 5734 5734 5723 5726 5732 5735 5739 5739 5736 5735 5734 5733 5732 5731 5729 5726 5725 5723 5722 5721 5720 5719 5718 5717 5717 5716 5715 5715 5714 5713 5712 5709
5740 5741 5740 5739 5738 5738 5737 5733 5727 5722 5721 5720 5725 5721 5718 5716 5716 5719 5722 5723 5723 5722 5720 5718 5718 5718 5718 5716 5713 5711 5709 5709 5708 5707 5706 5706 5705 5704 5703 5702 5701 5701 5699 5697
5721 5726 5727 5725 5723 5722 5720 5717 5713 5709 5707 5707 5709 5705 5709 5707 5705 5704 5702 5704 5706 5707 5706 5704 5703 5702 5702 5702 5701 5699 5698 5696 5696 5696 5695 5694 5693 5692 5690 5688 5687 5686 5685 5683
5700 5705 5711 5706 5707 5707 5704 5702 5700 5694 5690 5687 5690 5692 5697 5697 5695 5691 5689 5689 5689 5689 5689 5688 5688 5688 5687 5687 5687 5686 5686 5685 5684 5684 5683 5682 5681 5679 5677 5675 5673 5672 5670 5668
5681 5682 5692 5688 5688 5689 5688 5686 5682 5675 5670 5666 5672 5677 5682 5684 5681 5681 5681 5679 5677 5675 5674 5674 5674 5673 5673 5673 5673 5672 5671 5671 5671 5670 5669 5668 5667 5665 5663 5661 5660 5658 5655 5653
5663 5659 5666 5669 5670 5670 5668 5667 5663 5656 5651 5647 5645 5659 5675 5670 5667 5666 5667 5665 5662 5662 5662 5661 5660 5658 5657 5657 5657 5656 5656 5656 5656 5655 5654 5652 5651 5649 5647 5646 5645 5643 5641 5639
5648 5640 5637 5646 5653 5651 5648 5647 5647 5640 5634 5629 5623 5633 5662 5655 5653 5652 5651 5650 5646 5644 5644 5644 5643 5641 5641 5640 5640 5639 5639 5639 5639 5639 5638 5637 5635 5632 5631 5630 5629 5627 5626 5624
5633 5623 5616 5618 5631 5636 5630 5632 5631 5624 5617 5611 5606 5614 5642 5639 5638 5639 5638 5635 5631 5629 5628 5626 5624 5622 5621 5621 5621 5621 5621 5622 5622 5621 5620 5618 5616 5614 5613 5612 5611 5610 5609 5608
5612 5603 5601 5600 5606 5614 5610 5612 5613 5607 5597 5593 5593 5598 5615 5621 5622 5624 5621 5617 5613 5611 5609 5606 5603 5601 5600 5600 5600 5601 5602 5604 5603 5602 5601 5600 5599 5598 5596 5595 5594 5593 5592 5591
5594 5585 5584 5583 5588 5589 5587 5589 5592 5587 5582 5575 5575 5578 5587 5597 5600 5599 5597 5595 5591 5588 5585 5583 5582 5581 5580 5579 5579 5580 5582 5583 5582 5581 5582 5582 5582 5581 5580 5578 5577 5575 5574 5572
5575 5571 5568 5565 5568 5567 5563 5567 5569 5568 5567 5560 5554 5551 5564 5565 5565 5567 5570 5568 5560 5559 5561 5562 5562 5562 5561 5560 5558 5557 5559 5561 5560 5561 5562 5563 5563 5562 5561 5560 5558 5556 5555 5553
5556 5553 5548 5542 5546 5541 5540 5549 5548 5545 5545 5542 5531 5531 5531 5530 5536 5542 5541 5538 5538 5538 5539 5539 5540 5541 5541 5539 5537 5536 5538 5540 5541 5542 5542 5542 5542 5541 5541 5540 5538 5537 5536 5534
5534 5534 5527 5521 5524 5516 5526 5531 5524 5521 5523 5519 5508 5501 5504 5508 5516 5515 5513 5515 5514 5514 5514 5514 5514 5515 5516 5514 5512 5513 5515 5518 5521 5521 5521 5520 5520 5520 5520 5519 5519 5518 5516 5515
5516 5511 5506 5502 5497 5494 5507 5503 5501 5501 5502 5489 5484 5479 5478 5481 5488 5488 5491 5491 5490 5490 5489 5489 5489 5490 5491 5489 5487 5489 5493 5496 5498 5499 5499 5498 5498 5498 5498 5499 5499 5499 5498 5497
5496 5491 5485 5481 5476 5475 5479 5477 5478 5481 5477 5463 5461 5456 5454 5454 5457 5462 5465 5466 5467 5467 5467 5466 5467 5467 5468 5468 5466 5467 5469 5472 5474 5475 5475 5475 5475 5475 5477 5478 5479 5480 5479 5478
5467 5465 5464 5460 5454 5453 5457 5456 5456 5455 5449 5444 5439 5433 5431 5429 5428 5434 5438 5441 5442 5444 5445 5445 5446 5447 5449 5449 5447 5447 5449 5449 5450 5452 5453 5453 5453 5454 5456 5457 5459 5460 5460 5459
5439 5436 5435 5431 5429 5433 5438 5432 5430 5422 5420 5416 5413 5408 5404 5404 5406 5408 5412 5416 5419 5420 5422 5421 5423 5427 5428 5427 5427 5427 5427 5427 5428 5430 5431 5432 5433 5434 5436 5437 5439 5440 5441 5440
5417 5415 5408 5403 5403 5407 5409 5403 5395 5392 5392 5389 5386 5384 5380 5379 5381 5384 5387 5390 5393 5394 5396 5395 5397 5402 5406 5405 5404 5406 5406 5405 5406 5408 5410 5411 5412 5414 5416 5417 5418 5420 5421 5421
5398 5395 5387 5381 5381 5381 5379 5376 5369 5365 5362 5360 5358 5357 5354 5352 5354 5356 5359 5361 5364 5367 5368 5369 5370 5375 5380 5380 5379 5380 5381 5382 5384 5386 5388 5390 5391 5393 5395 5397 5398 5399 5400 5400
5379 5374 5366 5359 5359 5357 5357 5354 5348 5342 5339 5336 5333 5331 5327 5324 5325 5326 5329 5332 5333 5337 5340 5341 5343 5346 5351 5353 5354 5354 5354 5356 5358 5361 5365 5367 5369 5371 5373 5374 5376 5377 5379 5379
5363 5355 5347 5342 5342 5335 5334 5332 5326 5321 5318 5313 5310 5308 5304 5299 5297 5297 5298 5300 5301 5304 5306 5308 5312 5316 5321 5324 5328 5328 5324 5326 5330 5334 5339 5341 5344 5347 5349 5351 5353 5354 5356 5356